[[{"header":{"parameterUnit":"m.s-1","parameterCategory":1,"la1":30.2991,"la2":30.254,"lo1":-89.0895,"lo2":-89.0444,"dy":0.0017,"dx":0.0017,"nx":28,"ny":28,"refTime":"2023-09-13T21:00:00:Z","depth":0,"parameterNumber":2,"parameterNumberName":"U-component_of_WINDS"},"data":[0,0,0,0,0,0,0,0,0,0,0,0,0,0,0,0,0,0,0,0,0,0,0,0,0,0,0,0,0,0,0,0,0,0,0,0,0,0,0,0,0,0,0,0,0,0,0,0,0,0,0,0,0,0,0,0,0,0,-1.295,-1.295,0,-1.2927,-1.2926,-1.2926,-1.2848,-1.2846,-1.2844,-1.2843,-1.2821,-1.2822,-1.2823,0,0,0,0,0,0,0,0,0,0,0,0,0,-1.2929,-1.293,-1.295,-1.295,-1.295,-1.2927,-1.2926,-1.2926,-1.2848,-1.2846,-1.2844,-1.2842,-1.282,-1.2822,-1.2823,0,0,0,0,0,0,0,0,0,0,0,0,0,-1.2925,-1.293,-1.295,-1.2908,-1.2904,-1.2927,-1.2926,-1.2926,-1.2849,-1.2846,-1.2843,-1.2841,-1.282,-1.2822,-1.2823,-1.2886,0,0,-1.2828,-1.2829,0,0,0,0,0,0,0,0,-1.2926,-1.2926,-1.2914,-1.2911,-1.2906,-1.2887,-1.2911,-1.2913,-1.2849,-1.287,-1.2843,-1.284,-1.2845,-1.2845,-1.2846,-1.2885,-1.2884,-1.2828,-1.2829,-1.283,-1.283,0,0,0,0,0,0,0,-1.2926,-1.2927,-1.2941,-1.2914,-1.2909,-1.2891,-1.2887,-1.2911,-1.2873,-1.2868,-1.2862,-1.286,-1.2843,-1.2845,-1.2845,-1.2883,-1.2828,-1.2829,-1.283,-1.2831,-1.2972,-1.2975,0,0,0,0,0,0,-1.2932,-1.2927,-1.2942,-1.294,-1.291,-1.2893,-1.2889,-1.2896,-1.2872,-1.2866,-1.2862,-1.2857,-1.2843,-1.2843,-1.2844,-1.2916,-1.283,-1.2831,-1.2832,-1.2969,-1.2973,-1.2976,0,0,0,0,0,0,-1.2932,-1.2934,-1.2943,-1.2932,-1.2932,-1.2896,-1.2905,-1.2897,-1.2899,-1.2868,-1.2861,-1.2872,-1.2841,-1.2842,-1.2876,-1.2914,-1.2832,-1.2833,-1.2966,-1.297,-1.2974,-1.306,0,0,0,0,0,0,-1.2932,-1.2934,-1.2958,-1.2933,-1.2933,-1.2975,-1.2907,-1.2899,-1.2902,-1.2894,-1.2875,-1.2869,-1.2839,-1.2874,-1.2877,-1.2915,-1.2835,-1.2963,-1.2968,-1.2973,-1.3054,-1.3067,-1.3078,0,0,0,0,0,-1.2931,-1.2983,-1.2959,-1.2961,-1.2961,-1.2977,-1.2977,-1.2941,-1.2905,-1.2928,-1.2908,-1.287,-1.2909,-1.2878,-1.2881,-1.292,-1.296,-1.2967,-1.2973,-1.3048,-1.3064,-1.3077,0,0,0,0,0,0,-1.3014,-1.2979,-1.2952,-1.2998,-1.2991,-1.2964,-1.2992,-1.2959,-1.2962,-1.2955,-1.291,-1.2907,-1.2947,-1.2936,-1.2903,-1.2979,-1.2928,-1.2935,-1.2984,-1.2999,-1.3011,-1.3013,-1.2836,0,0,0,0,0,-1.3037,-1.3053,-1.3022,-1.3065,-1.3063,-1.3028,-1.3034,-1.3006,-1.2998,-1.2995,-1.2977,-1.2971,-1.2981,-1.299,-1.2998,-1.3051,-1.3046,-1.3079,-1.3091,-1.3101,-1.3109,-1.3136,-1.3151,-1.2997,-1.2996,-1.2996,0,0,-1.3086,-1.3069,-1.3082,-1.3081,-1.3072,-1.309,-1.3026,-1.3048,-1.306,-1.2998,-1.3029,-1.3016,-1.3006,-1.305,-1.3069,-1.3043,-1.315,-1.3109,-1.3118,-1.3119,-1.3144,-1.3159,-1.3172,-1.3001,-1.3,-1.2999,0,0,-1.3184,-1.3172,-1.3207,-1.3199,-1.3187,-1.3163,-1.3172,-1.3149,-1.3138,-1.3168,-1.3122,-1.3137,-1.3156,-1.3151,-1.3151,-1.3246,-1.3211,-1.325,-1.3313,-1.3341,-1.3353,-1.3364,-1.3398,-1.3411,-1.3257,-1.3257,-1.3257,0,-1.3247,-1.327,-1.3229,-1.3253,-1.3255,-1.3198,-1.3233,-1.3228,-1.322,-1.3222,-1.3192,-1.3215,-1.3205,-1.3247,-1.327,-1.3272,-1.3281,-1.3253,-1.3355,-1.3365,-1.3374,-1.3407,-1.342,-1.3262,-1.3262,-1.3261,-1.3261,0,-1.3348,-1.3365,-1.3395,-1.3387,-1.3391,-1.3421,-1.3385,-1.3395,-1.3367,-1.3347,-1.3378,-1.3363,-1.3367,-1.3375,-1.3349,-1.3414,-1.3398,-1.3363,-1.3311,-1.3395,-1.3424,-1.3436,-1.3269,-1.3267,-1.3266,-1.3265,0,0,-1.3499,-1.3467,-1.3478,-1.3474,-1.3455,-1.3468,-1.3495,-1.3498,-1.3508,-1.3504,-1.3526,-1.3543,-1.351,-1.351,-1.3482,-1.3506,-1.3583,-1.3467,-1.3466,-1.349,-1.3655,-1.3682,-1.3697,-1.3559,-1.3561,-1.3563,-1.3656,0,-1.3592,-1.3636,-1.3599,-1.365,-1.3666,-1.3612,-1.3635,-1.3627,-1.3609,-1.362,-1.36,-1.3613,-1.3568,-1.3568,-1.3589,-1.3569,-1.3616,-1.3562,-1.358,-1.3581,-1.3585,-1.3713,-1.3742,-1.383,-1.3667,-1.3669,-1.367,0,-1.3707,-1.3707,-1.3759,-1.3737,-1.3742,-1.3764,-1.3764,-1.3775,-1.3764,-1.3749,-1.3749,-1.3714,-1.374,-1.3689,-1.3724,-1.3688,-1.3693,-1.3685,-1.3687,-1.3688,-1.3632,-1.3718,-1.3857,-1.3871,-1.3688,-1.3687,-1.3686,0,-1.3812,-1.3825,-1.3857,-1.3855,-1.383,-1.3847,-1.3837,-1.3824,-1.3828,-1.3828,-1.3831,-1.3834,-1.3836,-1.384,-1.3808,-1.3773,-1.3847,-1.3793,-1.3836,-1.3837,-1.3855,-1.3854,-1.3998,-1.3858,-1.3857,-1.3857,-1.3857,0,-1.392,-1.3954,-1.3904,-1.3925,-1.3961,-1.3919,-1.3957,-1.3942,-1.3931,-1.3948,-1.3901,-1.3918,-1.3874,-1.3887,-1.3862,-1.3895,-1.3896,-1.3885,-1.3878,-1.389,-1.3891,-1.3893,-1.3886,-1.3861,-1.386,-1.3859,-1.3859,0,-1.4044,-1.4012,-1.4044,-1.4017,-1.4011,-1.404,-1.4017,-1.4035,-1.4013,-1.4035,-1.4038,-1.4004,-1.4017,-1.3984,-1.3992,-1.3975,-1.4023,-1.4006,-1.4027,-1.4022,-1.4067,-1.4063,-1.4217,-1.4235,-1.4083,-1.4085,-1.4086,0,-1.4116,-1.414,-1.4116,-1.4123,-1.4116,-1.4129,-1.4133,-1.4092,-1.4098,-1.4088,-1.4107,-1.4116,-1.412,-1.4143,-1.412,-1.4126,-1.4108,-1.4162,-1.4109,-1.412,-1.411,-1.4109,-1.4111,-1.4173,-1.4175,-1.4177,-1.4178,0,-1.4246,-1.4229,-1.4235,-1.4237,-1.4242,-1.4241,-1.4237,-1.4247,-1.4203,-1.4212,-1.4224,-1.4228,-1.4235,-1.4244,-1.4245,-1.4235,-1.42,-1.4194,-1.4205,-1.4217,-1.4228,-1.4223,-1.4057,-1.4191,-1.419,-1.4189,-1.4188,-1.4188,-1.4346,-1.4366,-1.4351,-1.436,-1.4353,-1.435,-1.4366,-1.4345,-1.4354,-1.4356,-1.4332,-1.4349,-1.4338,-1.4335,-1.4329,-1.4342,-1.4318,-1.4333,-1.4337,-1.4341,-1.4349,-1.4226,-1.4342,-1.4342,-1.4342,-1.4341,-1.4341,0,-1.4474,-1.4462,-1.4471,-1.4466,-1.4474,-1.4438,-1.4432,-1.4441,-1.4456,-1.4448,-1.4453,-1.4466,-1.4475,-1.4452,-1.4458,-1.4473,-1.4457,-1.4476,-1.4474,-1.4473,-1.437,-1.4361,-1.4488,-1.4488,-1.4488,-1.4488,-1.4488,-1.4488,-1.4542,-1.4573,-1.4554,-1.4581,-1.4569,-1.4584,-1.4584,-1.4581,-1.4574,-1.4591,-1.4598,-1.4583,-1.4569,-1.4573,-1.4579,-1.4573,-1.4577,-1.4602,-1.459,-1.4494,-1.448,-1.4466,-1.4457,-1.4603,-1.4603,-1.4691,-1.4692,-1.4692]},{"header":{"parameterUnit":"m.s-1","parameterCategory":1,"la1":30.2991,"la2":30.254,"lo1":-89.0895,"lo2":-89.0444,"dy":0.0017,"dx":0.0017,"nx":28,"ny":28,"refTime":"2023-09-13T21:00:00:Z","depth":0,"parameterNumber":3,"parameterNumberName":"V-component_of_WINDS"},"data":[0,0,0,0,0,0,0,0,0,0,0,0,0,0,0,0,0,0,0,0,0,0,0,0,0,0,0,0,0,0,0,0,0,0,0,0,0,0,0,0,0,0,0,0,0,0,0,0,0,0,0,0,0,0,0,0,0,0,0.1598,0.1598,0,0.1566,0.1565,0.1565,0.1553,0.1554,0.1554,0.1554,0.1519,0.1518,0.1517,0,0,0,0,0,0,0,0,0,0,0,0,0,0.1651,0.165,0.1598,0.1598,0.1598,0.1566,0.1565,0.1565,0.1553,0.1554,0.1554,0.1554,0.1519,0.1518,0.1517,0,0,0,0,0,0,0,0,0,0,0,0,0,0.1624,0.1649,0.1599,0.1588,0.1587,0.1566,0.1565,0.1565,0.1553,0.1554,0.1554,0.1554,0.152,0.1518,0.1517,0.1503,0,0,0.1512,0.1511,0,0,0,0,0,0,0,0,0.1625,0.1622,0.159,0.1589,0.1587,0.1564,0.1571,0.1544,0.1553,0.1566,0.1554,0.1554,0.1534,0.1531,0.1524,0.1502,0.15,0.1512,0.1511,0.151,0.151,0,0,0,0,0,0,0,0.1627,0.1623,0.1585,0.159,0.1588,0.1585,0.1581,0.1566,0.1549,0.1565,0.1564,0.156,0.1533,0.1526,0.1524,0.15,0.1512,0.151,0.151,0.1509,0.1464,0.1464,0,0,0,0,0,0,0.1631,0.1625,0.1586,0.1584,0.1607,0.1584,0.158,0.1571,0.1549,0.1546,0.156,0.156,0.1529,0.1525,0.1522,0.1505,0.151,0.1509,0.1508,0.1465,0.1464,0.1464,0,0,0,0,0,0,0.1632,0.1628,0.1588,0.1604,0.1599,0.1583,0.1573,0.157,0.1563,0.1546,0.1543,0.1556,0.1529,0.1524,0.1508,0.1504,0.1508,0.1507,0.1465,0.1465,0.1464,0.1471,0,0,0,0,0,0,0.1634,0.1628,0.1623,0.1604,0.1598,0.1574,0.1573,0.157,0.1561,0.156,0.1541,0.1538,0.1528,0.1511,0.1507,0.1502,0.1505,0.1465,0.1465,0.1464,0.1471,0.147,0.147,0,0,0,0,0,0.1636,0.1626,0.1623,0.1618,0.1591,0.1574,0.1571,0.156,0.156,0.1555,0.1544,0.1539,0.1505,0.1509,0.1505,0.1499,0.1466,0.1465,0.1464,0.1471,0.147,0.147,0,0,0,0,0,0,0.1644,0.1623,0.162,0.1603,0.1591,0.1572,0.1565,0.156,0.1547,0.1546,0.1534,0.1529,0.1514,0.1505,0.151,0.1485,0.1485,0.1484,0.1491,0.1491,0.1491,0.1493,0.1504,0,0,0,0,0,0.1644,0.1632,0.1614,0.1602,0.1596,0.1582,0.1574,0.1567,0.1553,0.1547,0.1535,0.1521,0.1508,0.1499,0.1485,0.147,0.1465,0.1464,0.1463,0.1463,0.1462,0.1453,0.1452,0.1462,0.1462,0.1462,0,0,0.1643,0.1631,0.1624,0.1603,0.1592,0.158,0.1577,0.1564,0.1554,0.1545,0.1529,0.152,0.1504,0.1488,0.148,0.1479,0.1458,0.1463,0.1463,0.1461,0.1452,0.1451,0.145,0.1462,0.1462,0.1462,0,0,0.1636,0.1626,0.1614,0.1603,0.1587,0.1578,0.1576,0.1558,0.1552,0.1535,0.1528,0.1517,0.1494,0.1483,0.1474,0.1464,0.1459,0.146,0.1458,0.145,0.1449,0.1448,0.1444,0.1443,0.1459,0.1459,0.1459,0,0.1637,0.1619,0.1608,0.1596,0.1587,0.1578,0.1566,0.1557,0.1537,0.1531,0.1531,0.1502,0.1491,0.1472,0.147,0.1463,0.146,0.1462,0.145,0.1449,0.1448,0.1444,0.1443,0.1459,0.1459,0.1459,0.1459,0,0.1621,0.1608,0.1601,0.1582,0.1573,0.1561,0.1548,0.154,0.1534,0.1525,0.1509,0.1495,0.1479,0.1474,0.1468,0.1455,0.1455,0.1453,0.1452,0.1448,0.1444,0.1442,0.1459,0.1459,0.1459,0.1459,0,0,0.1617,0.1594,0.1591,0.1583,0.1565,0.1555,0.1543,0.1527,0.152,0.1507,0.1496,0.1477,0.1475,0.1466,0.1458,0.1451,0.1444,0.145,0.1449,0.1449,0.1428,0.1429,0.1428,0.144,0.144,0.144,0.1429,0,0.1607,0.1585,0.1575,0.1557,0.1545,0.1537,0.1527,0.1515,0.1506,0.1494,0.1485,0.1472,0.147,0.1464,0.1457,0.1446,0.1439,0.1447,0.143,0.1429,0.1433,0.1426,0.1427,0.1417,0.1428,0.1427,0.1427,0,0.1592,0.158,0.156,0.1544,0.1539,0.1529,0.1515,0.1504,0.149,0.1485,0.1474,0.1468,0.1454,0.1456,0.1437,0.1443,0.1435,0.1429,0.1428,0.1426,0.1427,0.1422,0.1414,0.1413,0.1425,0.1425,0.1425,0,0.1591,0.1569,0.1555,0.1548,0.1529,0.1523,0.1514,0.1501,0.1492,0.148,0.1474,0.146,0.1452,0.1441,0.1431,0.1433,0.1413,0.1414,0.1408,0.1408,0.1403,0.1403,0.1393,0.14,0.14,0.14,0.14,0,0.158,0.1569,0.1554,0.1545,0.1532,0.1521,0.1509,0.15,0.1488,0.1477,0.147,0.146,0.1448,0.1436,0.1428,0.1414,0.1411,0.1405,0.1403,0.1406,0.1406,0.14,0.14,0.1399,0.1399,0.1399,0.14,0,0.1576,0.1566,0.1549,0.1533,0.1529,0.152,0.1506,0.1497,0.1489,0.1475,0.1471,0.1458,0.1444,0.1433,0.1415,0.141,0.1395,0.1393,0.1399,0.1398,0.1393,0.1393,0.1377,0.1375,0.1384,0.1384,0.1383,0,0.157,0.1561,0.1544,0.1536,0.1528,0.1516,0.1507,0.1497,0.1488,0.1473,0.1466,0.1451,0.1439,0.1418,0.1406,0.1392,0.139,0.1385,0.1387,0.139,0.1389,0.1389,0.1388,0.1385,0.1384,0.1384,0.1384,0,0.1559,0.1555,0.1543,0.1529,0.1519,0.1508,0.1496,0.149,0.1478,0.1469,0.1455,0.1446,0.1428,0.1413,0.1399,0.139,0.1385,0.1384,0.1382,0.1384,0.1388,0.1385,0.1398,0.1384,0.1384,0.1384,0.1384,0.1384,0.1553,0.1545,0.1532,0.1519,0.1509,0.1499,0.149,0.148,0.1468,0.1453,0.1448,0.1433,0.1421,0.14,0.1392,0.138,0.138,0.1377,0.1376,0.1375,0.1375,0.139,0.1378,0.1378,0.1378,0.1378,0.1378,0,0.1542,0.1533,0.1522,0.1506,0.1496,0.1493,0.148,0.1472,0.1459,0.1448,0.1436,0.142,0.1407,0.1395,0.1381,0.1374,0.1372,0.1371,0.1371,0.1369,0.1377,0.138,0.1373,0.1373,0.1373,0.1373,0.1373,0.1373,0.1535,0.1521,0.1515,0.1496,0.1487,0.1473,0.1466,0.1456,0.1447,0.143,0.1419,0.1411,0.14,0.1385,0.1373,0.137,0.1365,0.1364,0.136,0.1368,0.1368,0.1369,0.1372,0.1363,0.1363,0.1353,0.1353,0.1353]}]]